Meerawa, Australia

1:51 AM AEST on September 27, 2017 (GMT +1000)
Meerawa

Weather History for 94287 - October, 2012

Change the Weather History Date:

Tuesday, October 9, 2012

  Actual Average Record
Temperature  
Mean Temperature 72 °F -  
Max Temperature 82 °F 86 °F - ()
Min Temperature 63 °F 70 °F - ()
Cooling Degree Days 8    
Growing Degree Days 22 (Base 50)    
Moisture  
Dew Point 66 °F    
Average Humidity 79    
Maximum Humidity 100    
Minimum Humidity 47    
Precipitation  
Precipitation 0.00 in 0.08 in - ()
Sea Level Pressure  
Sea Level Pressure 29.84 in    
Wind  
Wind Speed 3 mph ()    
Max Wind Speed 12 mph    
Max Gust Speed -    
Visibility 7.8 miles    
Events Fog    
T = Trace of Precipitation, MM = Missing Value Source: Averaged Metar Reports

Daily Weather History Graph

Daily Weather History Graph

Search for Another Location

Airport or City:

Trip Planner

Search our weather history database for the weather conditions in past years. The results will help you decide how hot, cold, wet, or windy it might be!

Date:

Astronomy

Oct. 09, 2012 Rise Set
Actual Time 5:53 AM AEST 6:15 PM AEST
Civil Twilight 5:31 AM AEST 6:37 PM AEST
Nautical Twilight 5:06 AM AEST 7:02 PM AEST
Astronomical Twilight 4:40 AM AEST 7:28 PM AEST
Moon 12:49 AM AEST (10/9) 12:27 PM AEST (10/9)
Length of Visible Light 13h 05m
Length of Day
12h 22m
Last Quarter, 42% of the Moon is Illuminated
Oct 9
Last Quarter
Oct 15
New
Oct 22
First Quarter
Oct 30
Full
Nov 7
Last Quarter

Hourly Weather History & Observations

Time (AEST) Temp. Heat Index Dew Point Humidity Pressure Visibility Wind Dir Wind Speed Gust Speed Precip Events Conditions
12:00 AM 66 °F - 65 °F 94% 29.86 in - Calm Calm - -  
12:00 AM 66.2 °F - 64.4 °F 94% 29.86 in - Calm Calm - N/A   Clear
12:30 AM 66.2 °F - 64.4 °F 94% 29.86 in - Calm Calm - N/A   Clear
1:00 AM 65 °F - 64 °F 97% 29.86 in - Calm Calm - -  
1:00 AM 64.4 °F - 64.4 °F 100% 29.83 in 6.2 mi Calm Calm - N/A Fog Shallow Fog
1:30 AM 64.4 °F - 64.4 °F 100% 29.83 in 6.2 mi Calm Calm - N/A Fog Shallow Fog
2:00 AM 64.4 °F - 64.4 °F 100% 29.83 in 6.2 mi Calm Calm - N/A Fog Shallow Fog
2:30 AM 64.4 °F - 64.4 °F 100% 29.83 in 6.2 mi Calm Calm - N/A   Scattered Clouds
3:00 AM 65 °F - 65 °F 98% 29.83 in - Calm Calm - -  
3:00 AM 66.2 °F - 64.4 °F 94% 29.83 in 6.2 mi Calm Calm - N/A Fog Shallow Fog
3:30 AM 64.4 °F - 62.6 °F 94% 29.83 in 6.2 mi Calm Calm - N/A Fog Shallow Fog
4:00 AM 65 °F - 64 °F 97% 29.85 in - Calm Calm - -  
4:00 AM 66.2 °F - 64.4 °F 94% 29.83 in 6.2 mi Calm Calm - N/A   Scattered Clouds
4:30 AM 64.4 °F - 64.4 °F 100% 29.83 in 6.2 mi Calm Calm - N/A Fog Shallow Fog
5:00 AM 64.4 °F - 64.4 °F 100% 29.83 in 6.2 mi Calm Calm - N/A Fog Shallow Fog
5:30 AM 64.4 °F - 64.4 °F 100% 29.86 in 6.2 mi Calm Calm - N/A Fog Shallow Fog
6:00 AM 65 °F - 64 °F 96% 29.87 in 19 mi Calm Calm - -   Partly Cloudy
6:00 AM 64.4 °F - 64.4 °F 100% 29.86 in 6.2 mi Calm Calm - N/A   Partly Cloudy
6:30 AM 66.2 °F - 66.2 °F 100% 29.86 in 6.2 mi Calm Calm - N/A   Partly Cloudy
7:00 AM 69 °F - 67 °F 91% 29.90 in - Calm Calm - -  
7:00 AM 69.8 °F - 66.2 °F 88% 29.89 in 6.2 mi Calm Calm - N/A   Partly Cloudy
7:30 AM 71.6 °F - 64.4 °F 78% 29.89 in 6.2 mi ESE 6.9 mph - N/A   Partly Cloudy
8:00 AM 75.2 °F - 64.4 °F 69% 29.92 in 6.2 mi SE 6.9 mph - N/A   Partly Cloudy
8:30 AM 77.0 °F - 64.4 °F 65% 29.92 in 6.2 mi ESE 5.8 mph - N/A   Partly Cloudy
9:00 AM 79 °F - 65 °F 54% 29.92 in 19 mi SE 6.9 mph - -   Partly Cloudy
9:00 AM 78.8 °F - 64.4 °F 61% 29.92 in 6.2 mi SE 6.9 mph - N/A   Partly Cloudy
9:30 AM 80.6 °F 82.3 °F 64.4 °F 58% 29.89 in 6.2 mi East 3.5 mph - N/A   Partly Cloudy
10:00 AM 81 °F - 65 °F 49% 29.91 in - NE 8.1 mph - -  
10:00 AM 80.6 °F 82.3 °F 64.4 °F 58% 29.89 in 6.2 mi NE 8.1 mph - N/A   Partly Cloudy
10:30 AM 82.4 °F 84.6 °F 66.2 °F 58% 29.89 in - NNE 9.2 mph - N/A   Clear
11:00 AM 80.6 °F 82.3 °F 64.4 °F 58% 29.86 in - North 10.4 mph - N/A   Clear
11:30 AM 80.6 °F 82.3 °F 64.4 °F 58% 29.86 in - NNE 10.4 mph - N/A   Clear
12:00 PM 82 °F - 65 °F 47% 29.85 in 19 mi NNE 11.5 mph - -   Partly Cloudy
12:00 PM 82.4 °F 83.9 °F 64.4 °F 54% 29.83 in - NNE 11.5 mph - N/A   Clear
12:30 PM 80.6 °F 82.3 °F 64.4 °F 58% 29.83 in - NNE 11.5 mph - N/A   Clear
1:00 PM 81 °F - 65 °F 50% 29.83 in - NNE 11.5 mph - -  
1:00 PM 80.6 °F 82.7 °F 66.2 °F 61% 29.83 in - NNE 11.5 mph - N/A   Clear
1:30 PM 80.6 °F 82.7 °F 66.2 °F 61% 29.80 in - NNE 11.5 mph - N/A   Clear
2:00 PM 82.4 °F 84.6 °F 66.2 °F 58% 29.80 in - North 10.4 mph - N/A   Clear
2:30 PM 82.4 °F 84.6 °F 66.2 °F 58% 29.80 in - North 10.4 mph - N/A   Clear
3:00 PM 82 °F - 67 °F 52% 29.80 in 19 mi NNE 11.5 mph - -   Partly Cloudy
3:00 PM 82.4 °F 85.4 °F 68.0 °F 62% 29.80 in - NNE 11.5 mph - N/A   Clear
3:30 PM 82.4 °F 85.4 °F 68.0 °F 62% 29.77 in - NNE 10.4 mph - N/A   Clear
4:00 PM 81 °F - 68 °F 55% 29.80 in - North 10.4 mph - -  
4:00 PM 80.6 °F 83.2 °F 68.0 °F 65% 29.77 in - North 10.4 mph - N/A   Clear
4:30 PM 80.6 °F 83.2 °F 68.0 °F 65% 29.77 in 6.2 mi North 9.2 mph - N/A   Partly Cloudy
5:00 PM 78.8 °F - 68.0 °F 69% 29.80 in 6.2 mi North 9.2 mph - N/A   Partly Cloudy
5:30 PM 78.8 °F - 68.0 °F 69% 29.80 in 6.2 mi North 8.1 mph - N/A   Partly Cloudy
6:00 PM 76 °F - 68 °F 70% 29.81 in - North 8.1 mph - -  
6:00 PM 77.0 °F - 68.0 °F 74% 29.80 in 6.2 mi North 8.1 mph - N/A   Partly Cloudy
6:30 PM 75.2 °F - 68.0 °F 78% 29.80 in 6.2 mi North 5.8 mph - N/A   Partly Cloudy
7:00 PM 74 °F - 69 °F 81% 29.83 in - NW 1.2 mph - -  
7:00 PM 75.2 °F - 69.8 °F 83% 29.83 in 6.2 mi NW 1.2 mph - N/A   Partly Cloudy
7:30 PM 73.4 °F - 69.8 °F 88% 29.83 in 6.2 mi NW 4.6 mph - N/A   Partly Cloudy
8:00 PM 73.4 °F - 69.8 °F 88% 29.83 in 6.2 mi NW 2.3 mph - N/A   Partly Cloudy
8:30 PM 73.4 °F - 69.8 °F 88% 29.83 in 6.2 mi NW 3.5 mph - N/A   Partly Cloudy
9:00 PM 71 °F - 68 °F 88% 29.86 in - NW 3.5 mph - -  
9:00 PM 71.6 °F - 68.0 °F 88% 29.86 in 6.2 mi NW 3.5 mph - N/A   Partly Cloudy
9:30 PM 69.8 °F - 68.0 °F 94% 29.86 in - Calm Calm - N/A   Clear
10:00 PM 70 °F - 68 °F 93% 29.87 in - Calm Calm - -  
10:00 PM 69.8 °F - 68.0 °F 94% 29.86 in - Calm Calm - N/A   Clear
10:30 PM 68.0 °F - 66.2 °F 94% 29.86 in - Calm Calm - N/A   Clear
11:00 PM 68.0 °F - 66.2 °F 94% 29.86 in - Calm Calm - N/A   Clear
11:30 PM 68.0 °F - 68.0 °F 100% 29.86 in - Calm Calm - N/A   Clear